Flag for Iran Weather past 2 weeks in Bandar-Abbas, Iran

Now
95 °F

Haze.


Feels Like: 124 °F
Forecast: 86 / 100 °F
Wind: 14 mph from South

Location: Bandarabbass

Current Time: Jul 26, 2014 at 5:56:43 PM

Latest Report: Jul 26, 2014 at 5:30 PM


Visibility: 2 mi

Pressure: 29.47 "Hg

Humidity: 71%

Dew point: 84 °F

Location of Bandar-AbbasLocation

Historic Weather in Bandar-Abbas — Graph

°F

Bandar-Abbas temperature yesterday

Maximum temperature yesterday: 104 °F (at 4:00 PM)
Minimum temperature yesterday: 86 °F (at 5:30 AM)
Average temperature yesterday: 96 °F

Past Weeks' High & Low Weather Summary

 TemperatureHumidityPressure
High109 °F (Jul 19, 1:00 PM)89% (Jul 24, 4:20 AM)29.56 "Hg (Jul 24, 4:20 AM)
Low82 °F (Jul 19, 6:30 AM)19% (Jul 20, 11:00 AM)29.30 "Hg (Jul 16, 5:00 PM)
Average95 °F67%29.41 "Hg
* Reported Jul 11 4:30 PM — Jul 26 5:00 PM, Bandar-Abbas, Weather by CustomWeather, © 2014

Note: Actual official high and low records may vary slightly from our data, if they occured in-between our weather recording intervals... More about our weather records

Advertising

Bandar-Abbas weather history for previous 24 hours

 ConditionsComfort  
Time TempWeatherWind HumidityBarometerVisibility
5:00 PM
Jul 26
95 °FHaze.14 mph71%29.47 "Hg2 mi
4:30 PM97 °FHaze.12 mph67%29.47 "Hg2 mi
4:00 PM97 °FHaze.14 mph67%29.47 "Hg2 mi
3:30 PM97 °FHaze.12 mph71%29.50 "Hg2 mi
3:00 PM97 °FHaze.14 mph67%29.50 "Hg2 mi
2:30 PM97 °FHaze.12 mph67%29.53 "Hg2 mi
2:00 PM97 °FHaze.14 mph67%29.53 "Hg2 mi
1:30 PM97 °FHaze.14 mph67%29.53 "Hg2 mi
1:00 PM99 °FHaze.7 mph60%29.53 "Hg2 mi
12:30 PM99 °FHaze.12 mph60%29.53 "Hg2 mi
12:00 PM99 °FHaze.12 mph53%29.56 "Hg2 mi
11:20 AM97 °FScattered clouds.12 mph63%29.56 "Hg2 mi
11:00 AM97 °FScattered clouds.12 mph67%29.56 "Hg2 mi
10:30 AM95 °FScattered clouds.12 mph67%29.53 "Hg2 mi
10:00 AM95 °FScattered clouds.9 mph71%29.53 "Hg2 mi
9:30 AM95 °FScattered clouds.7 mph67%29.53 "Hg2 mi
8:58 AM95 °FScattered clouds.5 mph67%29.53 "Hg2 mi
8:20 AM93 °FScattered clouds.5 mph71%29.53 "Hg2 mi
8:00 AM93 °FScattered clouds.7 mph75%29.53 "Hg2 mi
7:30 AM91 °FPassing clouds.9 mph80%29.53 "Hg2 mi
7:00 AM90 °FFog.7 mph84%29.50 "Hg2 mi
6:30 AM91 °FHot.5 mph80%29.50 "HgN/A
5:30 AM91 °FFog.9 mph80%29.47 "Hg2 mi
4:20 AM90 °FFog.5 mph84%29.47 "Hg2 mi
3:30 AM91 °FFog.7 mph80%29.45 "Hg2 mi
2:30 AM91 °FFog.7 mph84%29.45 "Hg2 mi
2:00 AM91 °FFog.9 mph84%29.45 "Hg2 mi
1:30 AM91 °FFog.9 mph84%29.47 "Hg2 mi
1:00 AM91 °FHaze.7 mph75%29.47 "Hg2 mi
12:30 AM91 °FHaze.No wind71%29.47 "Hg2 mi
11:30 PM
Jul 25
93 °FHaze.5 mph71%29.45 "Hg2 mi
11:00 PM93 °FHaze.5 mph71%29.45 "Hg2 mi
10:30 PM93 °FHaze.7 mph63%29.45 "Hg2 mi
10:00 PM93 °FHaze.5 mph67%29.45 "Hg2 mi
9:30 PM95 °FHaze.9 mph60%29.42 "Hg2 mi
9:00 PM95 °FHaze.12 mph56%29.42 "Hg2 mi
8:30 PM95 °FHaze.12 mph56%29.42 "Hg2 mi
8:00 PM95 °FHaze.12 mph60%29.39 "Hg2 mi
7:30 PM97 °FHaze.14 mph56%29.39 "Hg2 mi
7:00 PM97 °FHaze.14 mph56%29.39 "Hg2 mi
6:30 PM97 °FSandstorm.16 mph56%29.39 "Hg2 mi
6:00 PM99 °FSandstorm.18 mph53%29.39 "Hg2 mi
5:30 PM99 °FSandstorm.16 mph57%29.39 "Hg2 mi
5:00 PM100 °FSandstorm.18 mph50%29.39 "Hg2 mi
Weather by CustomWeather, © 2014

See weather overviewHow to use our weather pages